Regional Weather Roundup
Issued by NWS

Home | Current Version | Previous Version | Graphics & Text | Print | Product List | Glossary On
Versions: 1 2 3 4 5 6 7 8 9 10 11 12 13 14 15 16 17 18 19 20 21 22 23 24 25 26 27 28 29 30 31 32 33 34 35 36 37 38 39 40 41 42 43 44 45 46 47 48 49 50
000
ASUS43 KFSD 050110
RWRSD

WEATHER ROUNDUP FOR SOUTH DAKOTA
NATIONAL WEATHER SERVICE SIOUX FALLS SD
800 PM CDT TUE AUG 04 2015

NOTE: "FAIR" INDICATES FEW OR NO CLOUDS BELOW 12,000 FEET WITH NO
SIGNIFICANT WEATHER AND/OR OBSTRUCTIONS TO VISIBILITY.


SDZ001>005-009-010-012>017-050200-
NORTHWEST AND NORTH CENTRAL SOUTH DAKOTA

CITY           SKY/WX    TMP DP  RH WIND       PRES   REMARKS
BUFFALO          N/A     80  61  52 SE10      29.88R
FAITH            N/A     80  56  43 SE18      29.94R
MOBRIDGE       SUNNY     82  60  47 SE14      29.91S
$$

SDZ012>016-024>037-041>051-057-063-072>074-050200-
SOUTHWEST AND SOUTH CENTRAL SOUTH DAKOTA

CITY           SKY/WX    TMP DP  RH WIND       PRES   REMARKS
RAPID CTY ARPT PTSUNNY   79  61  53 S8        29.95R
PIERRE         MOCLDY    79  60  52 E14       29.91S
CUSTER         PTSUNNY   67  54  63 SW9       30.11R
ELLSWORTH AFB  PTSUNNY   80  60  51 S8        29.95R
PHILIP         CLOUDY    79  66  64 E8        29.92R
PINE RIDGE     MOSUNNY   75  61  61 SE7       29.97R
WINNER         FAIR      78  64  61 SE12      29.95S
$$

SDZ004>011-016>023-039-040-050200-
NORTHEAST SOUTH DAKOTA

CITY           SKY/WX    TMP DP  RH WIND       PRES   REMARKS
ABERDEEN       CLEAR     78  58  49 E7        29.96S
WATERTOWN      CLEAR     76  54  46 E7        30.00R
BROOKINGS      PTCLDY    73  61  64 SE7       30.03R
SISSETON         N/A     74  56  53 E5        29.98R
$$

SDZ017-020-022-023-036>040-048>070-050200-
SOUTHEAST SOUTH DAKOTA

CITY           SKY/WX    TMP DP  RH WIND       PRES   REMARKS
SIOUX FALLS    CLOUDY    74  62  66 E10       29.99S
HURON          PTCLDY    77  62  59 SE9       29.95S
CHAMBERLAIN    MOCLDY    75  63  66 SE9       29.95S
MITCHELL       MOCLDY    76  65  68 E7        29.97R
YANKTON        MOCLDY    73  64  73 E6        29.95S
$$

ABBREVIATIONS USED IN REMARKS
   TC - TEMPERATURE IN CELSIUS
  WCI - WIND CHILL INDEX
   HX - HEAT INDEX
  VSB - VISIBILITY




USA.gov is the U.S. government's official web portal to all federal, state and local government web resources and services.